GFSFLT2_sfc_thetae_000.txt.gz
Theta_e
342 342 343 341 339 339 339 340 340 340 340 339 338 336 336 334 332 330 329 328 327 326 327 327 327 327 328 328 328 329 324 319
333 335 336 335 336 337 337 337 337 337 338 336 335 335 335 335 333 332 331 330 328 329 329 328 327 327 327 327 327 328 320 318
330 330 331 331 332 335 337 337 336 335 335 335 332 330 329 329 331 330 333 331 331 331 331 330 327 327 327 327 328 320 319 319
328 328 328 329 333 332 331 333 331 331 331 330 330 329 328 329 330 332 332 331 332 332 331 330 328 319 318 319 312 314 315 314
327 329 328 326 327 327 327 329 329 329 330 329 328 329 325 327 324 325 325 328 325 327 325 323 321 318 317 313 308 308 308 311
325 326 327 322 325 326 326 326 328 328 328 326 323 322 318 318 320 321 320 320 321 321 321 320 318 319 317 313 308 306 307 309
324 324 323 322 321 322 322 324 327 327 326 325 321 320 317 317 316 315 314 313 314 313 316 315 312 313 313 310 308 306 307 308
326 327 326 324 323 322 322 321 320 323 323 321 321 318 317 316 314 315 314 314 314 312 311 311 311 312 312 311 309 306 305 306
328 328 326 324 322 323 321 315 316 316 315 315 315 316 316 315 312 311 313 314 313 313 312 312 311 312 311 312 312 310 306 306
328 327 328 322 320 318 316 316 314 312 314 313 314 314 313 311 310 309 311 311 310 310 310 310 308 308 308 309 310 310 309 308
326 326 324 322 318 317 314 313 312 311 310 309 312 313 313 309 308 308 310 308 307 307 306 307 305 304 305 304 306 307 308 311
320 322 322 317 309 311 309 310 311 309 307 309 310 308 308 307 307 307 307 305 304 303 302 303 303 302 305 303 303 305 306 306
312 313 314 309 308 307 309 306 306 306 306 308 308 309 308 306 305 306 305 303 302 301 301 301 301 301 299 301 300 301 302 302
310 308 308 308 309 309 308 305 305 306 309 309 307 307 306 305 303 302 302 301 300 299 300 299 299 300 297 297 294 298 297 300
305 305 305 307 308 305 305 306 306 305 304 303 305 303 303 302 301 301 300 300 298 298 299 298 297 298 298 296 292 290 293 297
304 304 304 305 305 303 304 303 301 302 302 300 299 300 301 301 300 300 299 299 297 298 300 297 297 295 296 299 295 294 292 290
303 304 304 304 304 303 302 300 299 299 299 297 297 298 299 299 299 298 298 298 297 296 297 296 296 295 294 294 293 292 295 290
301 302 303 303 302 302 302 299 297 297 295 294 295 296 297 297 298 296 295 295 294 294 293 293 292 292 292 292 292 290 289 288
303 303 304 303 302 300 299 297 296 294 294 295 295 296 296 296 295 295 294 294 293 293 292 291 292 291 291 292 292 291 291 290
302 300 298 299 298 297 297 298 299 298 298 294 296 295 295 295 294 294 293 293 292 291 290 290 290 289 288 288 289 289 289 288

GFSFLT2_sfc_thetae_006.txt.gz
Theta_e
342 341 342 341 340 340 339 340 340 340 339 337 337 335 334 331 330 330 329 328 330 330 331 331 330 329 329 329 327 326 315 317
338 340 342 337 336 337 337 337 338 338 337 336 334 334 334 333 332 330 331 331 331 332 331 331 330 330 329 328 327 318 311 313
338 337 337 332 331 334 337 338 337 336 335 334 331 326 325 325 330 332 332 331 331 332 332 331 330 328 327 327 324 310 308 310
332 330 328 328 334 330 328 330 329 329 329 328 327 325 325 328 329 331 332 332 332 332 332 332 329 321 319 321 315 312 308 307
327 326 326 326 328 326 325 326 325 326 326 325 325 327 324 324 322 321 320 325 321 322 322 321 320 319 318 317 316 314 309 307
326 324 324 324 323 324 323 324 324 324 326 326 323 322 320 318 317 314 313 313 312 314 315 316 316 314 313 313 314 313 310 308
323 323 323 323 322 322 321 323 325 325 325 324 321 318 314 314 312 312 312 312 311 311 310 310 310 311 310 310 310 310 309 308
323 323 322 320 320 321 321 322 323 324 323 320 319 316 314 313 311 310 309 310 309 309 309 308 308 307 306 308 307 307 307 308
321 322 321 321 321 321 322 321 322 321 318 314 316 315 312 309 306 305 306 307 306 305 305 304 303 303 303 304 304 305 305 308
325 327 326 323 321 320 319 317 316 315 314 314 311 308 307 305 304 304 305 304 303 303 303 300 301 300 299 300 300 302 303 306
324 325 324 322 319 317 315 312 309 308 308 307 306 307 306 304 303 303 302 301 300 300 299 299 299 299 300 300 298 299 301 306
320 319 317 316 315 314 313 309 308 309 308 307 305 305 306 306 303 301 300 299 298 298 298 298 298 298 300 298 297 297 300 301
314 314 314 312 309 308 307 306 308 310 304 303 303 303 301 300 299 299 298 297 296 297 296 296 296 297 295 295 295 296 298 299
311 310 308 309 307 306 309 309 306 302 301 299 300 299 299 300 298 297 297 296 296 295 295 295 295 296 294 293 290 293 295 296
304 304 304 305 307 306 302 302 302 299 298 296 297 298 298 297 297 297 295 295 295 294 294 294 292 293 293 292 288 286 289 293
300 302 302 302 302 301 300 299 297 297 295 294 295 297 297 297 296 295 294 294 294 294 294 292 292 289 292 293 291 290 287 286
299 301 301 301 300 300 299 295 296 295 293 294 294 295 296 296 295 294 294 293 292 291 290 289 290 288 288 288 289 289 289 287
298 299 298 299 298 297 296 295 294 293 293 294 294 294 294 295 295 293 292 291 291 290 289 288 288 287 288 288 287 286 285 285
298 296 295 296 296 296 295 295 293 294 294 293 293 294 294 293 292 292 291 291 291 289 288 287 286 285 285 285 286 285 287 286
294 294 294 295 295 294 295 294 294 295 295 294 294 292 292 292 292 291 291 293 291 292 290 287 287 285 284 284 284 285 285 285

GFSFLT2_sfc_thetae_009.txt.gz
Theta_e
345 346 345 341 340 340 339 339 340 339 338 338 336 334 333 332 331 331 330 331 332 333 332 332 331 331 330 329 328 322 320 320
344 345 345 344 344 338 338 338 338 338 337 336 333 333 332 332 331 331 332 332 332 333 333 333 332 331 329 328 327 321 321 320
341 339 340 343 343 341 338 338 337 336 336 334 332 333 333 332 332 332 333 332 333 333 333 332 332 330 328 328 326 326 324 322
338 338 338 339 339 339 338 337 336 336 335 335 335 335 335 333 333 330 330 330 332 331 330 330 330 330 329 327 326 327 325 324
335 336 337 339 337 337 335 335 334 334 335 334 335 335 336 337 335 333 333 328 327 326 327 328 328 327 325 324 324 323 322 321
337 338 336 334 334 333 332 331 331 332 334 335 335 334 334 331 329 326 325 325 324 323 323 324 323 321 320 320 319 317 315 316
333 332 332 331 330 330 329 329 330 332 334 334 334 331 330 327 325 323 322 321 320 320 320 320 319 318 318 316 314 313 314 314
330 329 329 328 328 329 329 329 327 327 328 324 325 326 326 324 319 317 317 318 318 317 318 316 315 314 313 313 311 311 313 314
328 327 328 328 327 328 326 324 322 320 321 322 319 319 319 316 316 316 315 316 315 315 314 314 312 310 309 309 309 310 310 313
329 329 328 328 328 325 323 318 319 317 317 317 315 315 316 316 314 314 313 312 312 312 311 310 309 308 307 307 308 308 310 313
329 330 328 326 321 316 314 315 313 312 315 313 313 311 312 313 311 310 310 309 309 308 308 307 306 305 303 305 305 304 312 310
326 326 325 322 318 316 316 315 314 315 312 308 310 310 310 310 309 309 309 307 307 307 306 305 305 303 300 301 302 305 311 310
322 321 321 320 316 315 315 315 314 309 309 309 309 309 308 309 307 307 307 306 306 306 305 302 301 304 300 299 300 306 307 306
320 319 317 316 317 317 318 317 312 307 307 307 306 307 306 306 307 307 307 306 306 305 303 300 302 303 297 296 294 297 301 303
315 315 315 314 315 314 312 311 310 308 305 305 305 306 306 306 307 307 306 306 304 303 302 301 298 300 301 296 291 290 294 298
310 310 310 309 310 310 310 309 307 306 304 305 306 306 306 304 305 305 305 304 303 302 300 299 298 294 296 298 297 296 289 288
308 308 307 307 308 309 307 306 305 304 305 304 304 305 304 303 303 303 303 302 301 300 298 297 296 294 293 293 293 292 292 288
306 305 304 305 306 306 306 305 303 303 303 303 303 304 305 304 302 302 301 300 299 298 297 295 295 294 294 292 289 287 286 287
303 303 301 303 303 303 302 302 302 302 302 301 301 301 301 302 301 300 299 298 297 298 296 295 294 293 292 291 291 290 290 289
302 302 301 301 302 301 301 299 298 297 297 297 296 297 298 301 301 299 298 299 298 297 296 295 295 294 293 292 291 291 292 291

GFSFLT2_sfc_thetae_012.txt.gz
Theta_e
345 345 343 340 341 341 340 340 340 340 338 337 334 333 332 331 332 332 331 331 331 332 331 332 332 331 330 329 328 321 325 323
344 345 345 345 345 339 339 338 338 338 336 335 334 333 331 331 330 332 332 332 332 332 332 333 333 332 330 329 329 328 325 324
343 343 343 343 343 342 338 338 337 337 336 334 331 336 335 332 330 331 332 333 333 333 333 333 332 332 330 329 328 324 325 323
340 341 340 342 338 339 338 334 335 336 337 337 338 338 337 334 333 331 330 330 331 328 328 329 329 327 326 327 323 325 323 323
338 339 339 341 337 335 333 333 335 337 338 338 338 338 338 336 334 333 334 328 330 328 328 326 327 326 324 324 323 322 321 321
336 337 339 339 335 332 332 333 335 337 338 339 341 337 336 333 331 331 333 330 327 326 325 325 325 323 323 322 321 319 318 318
337 338 337 336 334 333 333 335 336 337 338 337 335 333 332 332 331 329 327 325 324 323 322 321 320 319 320 318 317 317 317 317
336 335 335 333 332 334 334 332 330 330 332 329 327 326 327 330 326 324 323 323 322 320 319 317 317 317 316 316 315 315 314 316
335 335 334 334 332 329 328 325 324 326 330 329 324 323 324 322 321 321 321 319 318 318 317 317 315 314 314 314 314 314 313 314
335 334 334 333 328 324 325 324 325 322 321 320 319 318 319 319 319 320 317 317 316 315 314 313 313 312 311 311 311 312 311 314
334 334 334 332 327 322 320 324 319 319 319 318 317 317 317 319 317 316 316 315 314 313 312 311 309 309 307 307 309 309 309 310
335 331 331 332 330 324 320 319 320 320 319 317 316 316 315 317 315 314 313 312 311 310 310 310 308 308 306 306 308 307 308 310
333 331 331 330 327 323 319 319 320 318 316 315 314 314 313 313 312 312 312 310 310 310 308 307 306 307 304 303 303 305 307 307
331 330 330 328 325 323 323 322 320 315 315 313 312 311 311 310 311 310 310 308 309 309 307 304 304 305 302 300 296 299 302 305
325 324 323 322 322 321 320 319 316 314 313 313 311 311 311 310 310 310 309 308 306 307 306 304 301 303 302 299 295 293 296 299
321 320 318 317 316 317 316 315 314 312 313 312 311 311 311 310 309 309 308 307 306 306 304 303 301 298 299 299 299 297 292 290
316 315 314 315 316 316 314 312 311 311 311 309 310 311 311 309 308 308 307 306 306 305 303 301 300 299 297 296 296 295 294 290
315 313 312 313 313 312 312 309 308 308 307 305 304 303 303 303 303 306 307 306 305 303 302 301 299 297 296 294 293 291 290 289
311 311 309 310 310 309 308 307 304 302 300 299 298 298 299 300 302 303 304 304 303 302 300 299 297 295 295 293 293 292 292 291
310 309 307 307 305 303 302 300 300 299 299 299 298 298 298 300 302 303 304 303 301 299 300 299 297 296 295 294 293 293 293 292

GFSFLT2_sfc_thetae_015.txt.gz
Theta_e
343 342 340 340 340 340 340 340 340 339 337 335 332 332 332 332 332 332 331 331 332 332 332 333 333 332 331 331 331 331 327 324
344 343 343 344 343 339 338 338 338 338 335 333 333 333 331 331 331 332 332 332 333 334 334 334 333 334 332 330 329 330 324 323
342 342 341 342 341 340 338 338 337 336 335 333 330 333 332 331 331 332 332 332 332 332 331 331 332 332 333 329 329 322 323 321
341 341 340 339 334 337 335 331 332 333 335 334 333 335 335 329 331 331 331 331 332 331 330 330 329 326 325 331 322 322 320 320
339 342 342 336 334 332 330 331 333 336 337 336 336 335 336 334 331 332 333 328 329 328 327 326 327 326 324 324 322 321 318 318
337 338 340 336 332 330 330 332 334 334 336 337 337 334 335 333 330 331 332 329 328 327 326 327 325 323 322 321 320 318 317 317
335 337 336 334 332 332 335 335 335 336 336 334 334 334 333 331 331 330 328 327 326 325 324 322 320 320 320 318 318 317 317 316
334 333 334 333 333 336 333 331 330 329 330 331 333 333 331 327 326 326 324 325 322 321 319 318 317 318 317 317 316 316 316 316
334 335 334 333 335 331 328 325 327 326 327 331 330 330 327 325 323 322 320 322 321 320 319 317 315 315 315 314 314 314 314 314
335 333 334 335 333 329 326 327 327 324 322 322 321 321 322 321 319 320 319 317 317 316 315 313 312 312 311 311 311 310 311 312
335 335 335 333 332 330 331 329 327 325 323 322 321 319 319 320 318 318 318 316 315 314 313 312 310 310 309 309 310 309 310 309
336 335 334 331 330 331 330 328 325 324 323 320 319 318 317 318 317 316 315 314 313 313 312 312 310 308 305 306 308 307 307 308
332 331 331 331 330 328 324 321 322 322 320 318 317 316 315 315 315 315 314 312 312 312 310 308 305 306 303 304 304 306 308 306
330 331 331 331 328 325 324 323 322 319 317 317 315 315 314 313 314 313 312 310 310 309 308 305 304 304 301 300 296 298 302 303
331 330 329 327 325 324 324 322 318 316 315 314 314 314 313 313 312 312 311 309 306 307 306 305 301 302 303 299 293 292 295 299
327 325 323 323 322 319 318 318 314 314 314 314 314 313 313 311 310 309 309 307 306 305 305 304 302 299 300 300 300 298 292 291
322 320 317 318 319 319 317 315 314 313 313 310 311 309 307 304 304 304 305 306 306 306 305 303 302 300 298 297 296 295 295 291
318 316 316 317 317 316 314 312 309 308 305 302 302 301 302 302 302 303 303 304 305 305 304 303 301 300 298 296 294 291 290 290
316 315 313 314 313 311 309 306 304 301 301 300 299 299 299 300 301 302 302 303 304 303 302 301 300 298 297 295 294 293 293 291
314 313 311 310 307 305 304 302 300 301 301 300 300 299 299 300 301 303 303 303 303 302 301 301 299 297 296 295 294 294 294 292

GFSFLT2_sfc_thetae_018.txt.gz
Theta_e
337 339 341 340 338 339 338 338 338 338 336 335 335 335 335 335 336 335 335 335 335 336 335 335 335 335 333 331 330 330 323 320
336 337 341 339 337 337 336 336 336 336 334 333 333 333 333 334 334 335 335 334 334 334 335 334 334 334 333 331 330 329 317 319
338 339 339 339 337 336 336 337 335 334 332 332 329 330 330 331 332 333 333 332 332 333 331 331 331 331 332 332 332 317 316 317
336 338 338 338 334 334 331 330 329 332 331 329 332 332 329 327 332 332 333 332 331 332 331 331 330 322 322 328 318 318 316 316
336 338 337 333 331 332 328 331 333 334 334 334 334 334 334 331 332 329 330 331 329 327 326 325 322 321 319 319 318 315 313 314
336 336 338 332 331 330 331 332 334 335 336 334 335 334 333 331 330 328 327 325 325 324 322 322 318 318 318 317 316 314 312 312
334 337 334 333 331 334 333 331 330 332 331 332 332 331 329 327 325 325 326 322 320 318 317 316 315 315 317 315 313 312 313 311
332 332 332 333 334 332 329 328 327 327 328 330 331 330 328 324 324 321 320 320 317 316 315 314 313 313 312 314 313 311 311 312
332 332 332 333 333 330 326 326 326 325 326 327 327 327 324 322 319 318 316 317 316 315 313 312 310 310 308 309 309 308 307 309
331 331 332 334 330 328 328 327 326 324 322 322 321 321 320 318 316 318 316 315 314 312 310 309 308 307 306 306 306 306 305 306
331 333 333 331 329 328 329 328 326 323 323 321 320 318 318 317 315 315 313 313 312 311 309 308 306 305 304 302 303 302 304 305
332 333 332 330 329 329 329 328 325 323 322 318 318 316 316 315 315 312 312 311 309 309 308 307 305 302 303 301 301 302 301 302
332 329 329 329 327 326 325 321 321 320 317 317 316 314 314 312 312 312 311 308 308 307 304 302 301 302 298 298 298 299 299 298
331 329 328 330 330 326 322 321 321 317 316 315 314 314 312 311 311 309 309 307 306 305 302 301 300 300 296 295 291 293 296 297
328 329 330 331 325 323 322 319 316 313 313 312 312 312 311 310 310 308 307 305 303 302 301 300 297 297 298 293 290 287 291 294
330 330 327 323 323 321 319 314 311 313 312 312 311 312 309 305 304 303 303 304 302 302 302 299 298 294 295 298 294 292 286 286
325 322 321 320 319 319 316 313 312 311 309 307 305 303 303 302 301 301 300 300 301 302 301 299 297 296 294 293 291 290 290 285
320 316 316 317 316 314 312 308 306 302 301 299 300 300 300 301 301 300 301 300 300 301 300 299 297 296 295 293 290 288 286 285
316 315 313 314 312 310 307 304 303 300 299 300 299 298 297 298 298 299 299 300 301 300 298 297 297 295 293 291 292 290 289 288
314 313 311 311 307 304 304 303 301 301 300 299 298 297 297 298 298 298 299 301 300 298 297 297 296 295 293 293 290 290 291 288

GFSFLT2_sfc_thetae_021.txt.gz
Theta_e
336 337 339 339 337 337 336 337 337 335 335 335 335 335 335 337 337 336 336 335 334 335 335 333 333 333 332 332 331 331 316 318
330 337 336 336 334 335 335 334 333 333 333 333 332 333 335 335 335 335 334 333 333 334 332 332 332 331 331 331 330 326 313 316
328 335 334 333 332 334 334 335 333 332 332 331 329 326 327 330 331 333 332 331 331 332 331 330 330 328 331 330 329 313 313 314
331 333 335 333 331 330 329 331 329 326 325 326 324 326 325 329 330 331 331 331 330 330 330 331 329 318 317 324 314 312 311 315
332 333 335 331 328 327 326 325 327 329 328 328 328 329 327 328 327 327 327 328 323 325 322 319 314 314 315 313 313 310 309 314
333 335 333 328 330 325 325 329 330 331 329 329 329 327 324 323 322 321 320 319 316 316 315 313 312 313 313 312 311 309 310 312
331 332 326 326 327 330 329 327 327 326 326 327 326 324 322 321 320 319 316 316 312 311 312 311 310 309 309 309 309 308 308 308
329 329 325 329 327 325 324 322 322 323 324 325 326 324 320 318 316 313 313 312 312 310 308 308 306 306 306 307 306 306 304 304
327 324 327 328 324 323 322 322 321 320 320 322 322 320 317 316 312 312 311 310 308 307 307 306 306 307 305 305 304 304 303 302
326 328 328 325 323 322 321 323 319 317 316 315 316 317 315 312 312 309 308 309 308 307 306 305 304 303 300 300 302 301 302 301
324 325 326 324 323 322 323 322 318 316 316 314 313 313 313 311 310 308 308 307 307 306 304 304 301 300 299 297 297 298 298 301
326 327 325 324 323 322 323 320 317 317 315 312 311 310 310 310 309 308 307 305 304 303 301 300 300 298 301 298 296 297 297 296
328 325 324 324 320 320 319 315 315 310 309 310 309 309 309 307 306 306 305 303 302 302 299 298 297 297 294 294 294 295 295 294
326 326 325 324 323 324 319 314 312 309 309 308 308 308 307 307 305 304 303 302 300 299 298 296 297 295 292 291 288 290 292 294
325 324 325 324 324 316 313 310 308 307 306 305 307 308 307 304 301 299 299 300 298 297 297 296 293 294 294 291 287 284 287 290
325 325 325 326 320 314 310 307 305 306 306 306 302 300 299 299 299 298 296 296 295 297 299 296 294 291 293 295 290 289 283 282
323 323 319 315 314 313 309 306 304 302 299 297 296 297 298 297 298 296 295 296 296 296 296 295 294 293 291 290 288 287 286 283
315 311 310 309 308 306 304 302 297 296 294 294 294 295 296 296 296 295 295 296 296 296 295 294 294 293 292 290 288 286 285 283
308 309 307 306 303 299 298 297 296 294 293 294 294 293 293 292 294 294 294 296 297 296 294 294 293 292 291 290 289 288 288 286
307 307 306 304 301 298 297 296 295 295 295 294 294 293 292 293 293 293 294 295 296 295 294 294 294 292 291 290 289 288 288 287

GFSFLT2_sfc_thetae_024.txt.gz
Theta_e
333 334 336 336 336 337 336 335 335 335 336 335 336 335 336 336 337 336 335 334 333 332 332 332 332 332 332 331 327 326 316 318
329 333 334 334 333 335 335 333 333 334 334 334 333 334 335 335 334 335 334 332 332 331 331 330 330 331 331 330 323 323 313 317
331 333 333 332 331 332 333 333 332 332 332 332 329 326 327 329 330 332 331 330 331 330 330 330 330 326 330 328 320 311 313 315
327 332 332 330 330 328 326 327 326 325 324 325 323 322 323 328 330 330 331 329 330 330 330 325 320 314 314 318 311 309 313 315
326 331 331 328 326 325 325 324 324 324 323 323 325 326 325 325 324 323 323 323 318 318 314 312 311 311 311 311 309 308 307 312
327 331 331 326 325 323 322 324 328 328 328 328 326 324 320 319 319 318 316 313 311 312 310 310 308 308 308 307 306 306 306 309
330 332 331 326 325 324 326 328 326 325 325 325 323 321 318 318 315 313 313 311 309 309 308 307 306 305 305 305 304 304 302 305
330 331 324 325 326 323 321 321 322 323 323 323 323 319 316 314 312 311 310 310 308 306 305 304 304 304 303 302 303 301 301 300
328 323 326 325 321 320 320 320 320 319 320 321 320 317 315 311 311 309 307 307 306 305 305 304 303 303 301 300 302 300 301 299
326 328 324 322 320 319 320 318 316 315 315 316 316 316 313 311 307 306 306 306 305 304 303 302 301 299 297 296 297 299 298 298
322 326 322 321 320 320 319 317 315 314 314 312 312 311 312 309 306 305 305 304 303 303 301 300 299 297 298 296 295 296 296 298
323 325 322 321 320 320 318 316 315 314 312 310 309 308 310 307 305 304 304 302 301 300 297 297 297 296 299 296 294 294 294 293
324 322 322 321 320 319 316 313 313 311 307 308 307 307 306 305 304 303 302 301 299 299 297 295 295 295 292 292 292 292 292 292
324 323 322 321 320 319 317 313 309 307 306 306 306 306 305 305 303 302 301 299 298 297 296 294 294 293 291 289 286 289 290 291
323 323 322 321 320 318 311 308 306 304 303 303 304 306 302 300 298 297 296 296 295 295 295 294 292 292 291 290 285 283 285 288
323 324 323 322 319 315 313 309 306 303 303 303 300 298 298 298 297 295 295 294 294 294 297 294 292 290 291 293 289 288 282 281
323 322 322 322 315 313 310 304 303 303 300 295 295 295 296 296 295 294 294 295 294 295 294 293 293 291 290 289 287 286 284 282
319 318 313 314 312 308 306 301 298 297 294 293 294 295 294 294 295 293 293 294 295 294 293 293 292 291 291 289 287 285 284 282
316 310 304 303 302 301 300 297 297 295 293 293 293 294 294 292 292 292 292 294 296 294 293 293 292 290 290 289 288 287 286 285
309 307 302 299 298 297 297 296 295 294 295 295 294 294 293 294 294 293 292 292 294 294 293 292 292 290 290 289 288 288 287 286

GFSFLT2_sfc_thetae_027.txt.gz
Theta_e
335 335 338 338 336 336 335 336 336 337 337 337 337 336 336 337 336 336 335 334 333 332 332 332 334 333 329 327 326 325 316 320
327 329 330 332 332 334 334 334 334 335 336 335 334 334 335 335 335 335 333 332 332 332 332 332 330 332 327 325 325 321 314 317
327 328 331 331 330 332 333 334 333 333 333 332 329 327 325 325 331 331 330 329 330 332 330 328 324 327 327 323 318 312 312 315
327 328 329 329 329 328 325 326 326 325 325 324 322 322 325 327 329 329 329 330 328 327 324 322 316 311 312 314 307 309 311 313
325 330 330 326 325 324 323 321 321 321 322 321 321 322 324 323 322 323 317 320 313 313 311 309 308 307 307 306 305 306 305 310
323 327 328 326 323 322 321 323 325 325 323 325 322 320 318 317 316 314 312 310 309 309 308 306 305 306 304 303 304 302 301 306
323 327 328 325 322 321 323 326 325 324 324 324 321 318 316 315 312 311 310 308 307 306 305 304 304 303 302 302 302 300 300 301
325 328 328 323 322 322 323 322 321 322 322 322 321 317 313 311 309 309 308 306 305 304 303 303 302 301 300 301 299 299 298 298
327 327 324 323 321 321 321 320 320 319 320 319 318 315 312 310 307 306 306 305 304 303 303 302 301 300 298 298 298 298 297 296
327 328 323 320 319 319 319 317 317 316 317 316 315 313 311 307 305 305 304 304 303 302 301 300 298 297 295 294 296 296 296 295
323 324 321 319 317 318 317 315 313 313 313 312 311 312 309 305 304 304 303 302 301 301 298 298 296 295 297 294 293 293 293 295
323 322 319 318 318 317 315 313 312 313 310 309 308 309 307 305 303 303 302 300 299 297 296 295 295 294 297 294 292 292 291 291
323 319 318 319 318 316 312 311 311 309 308 307 307 306 305 303 302 301 301 299 297 297 295 294 294 292 291 291 290 290 290 289
322 320 319 319 319 317 315 312 309 306 305 305 305 304 303 303 301 299 298 297 296 295 295 293 293 292 290 288 286 288 289 289
322 321 320 319 319 317 310 307 305 303 302 302 303 304 301 298 297 295 295 294 293 293 294 293 291 291 290 289 284 283 284 287
322 322 321 320 319 317 313 310 305 302 302 301 296 297 296 296 295 295 295 294 293 293 296 293 291 289 290 292 288 287 283 281
321 322 321 321 318 316 312 307 303 303 300 294 294 295 296 295 295 294 294 294 294 294 293 292 292 291 290 289 287 285 283 281
320 320 320 320 318 314 310 303 301 299 293 293 293 293 293 294 294 294 296 297 294 293 292 292 291 290 290 288 286 285 283 281
320 318 313 315 313 308 305 303 302 299 294 293 292 292 292 293 295 295 295 297 295 294 294 291 291 289 289 288 288 287 286 284
319 313 307 305 304 302 298 298 299 297 296 294 294 294 294 295 294 295 293 292 293 294 293 291 290 289 289 288 289 287 286 285

GFSFLT2_sfc_thetae_030.txt.gz
Theta_e
332 336 337 337 336 336 336 337 338 338 338 338 338 337 337 337 337 336 335 334 334 334 335 335 332 331 331 328 327 325 318 322
326 326 329 330 331 334 334 335 336 336 336 335 334 335 336 335 334 334 334 334 334 333 333 334 331 329 328 327 323 320 316 319
324 324 327 329 329 331 333 335 335 334 334 333 328 326 326 324 330 331 331 330 332 330 328 326 325 325 323 320 317 312 313 316
323 323 324 327 330 325 324 328 326 325 325 323 324 323 322 325 328 330 330 328 327 325 322 320 314 309 308 311 307 308 311 313
323 323 323 326 325 323 322 321 321 322 322 320 320 322 321 321 320 317 314 317 310 310 308 307 306 305 304 304 303 302 304 309
322 324 326 326 324 321 320 319 320 320 319 321 321 320 318 317 315 311 310 309 308 306 305 305 304 303 303 302 301 300 300 302
323 324 326 325 321 319 319 322 322 321 321 322 319 317 315 312 310 309 307 307 305 304 303 303 302 301 301 300 300 299 299 299
320 324 327 324 319 319 322 322 322 321 321 320 318 316 312 309 308 307 306 305 304 303 302 301 299 299 299 299 298 297 297 298
321 325 327 322 320 321 321 320 320 320 320 319 316 313 310 307 306 305 304 304 303 302 302 300 298 299 296 297 297 296 296 296
325 328 324 320 319 319 319 318 317 318 317 316 315 312 309 306 305 304 303 303 302 301 299 298 297 296 294 294 294 295 295 295
325 324 321 319 318 318 317 315 315 315 314 313 311 310 307 305 304 303 302 301 300 299 297 297 295 295 295 293 293 292 292 294
323 322 319 317 317 315 313 311 312 311 309 309 310 307 306 304 302 301 300 299 297 296 295 295 295 294 296 293 291 291 291 290
321 318 317 317 316 313 310 310 310 308 307 307 308 305 304 302 301 300 299 297 296 296 295 294 293 292 292 291 291 290 289 289
321 320 318 318 318 314 313 311 309 306 305 305 305 304 302 302 300 298 297 296 295 295 294 293 292 291 290 288 286 289 289 289
321 320 318 319 318 314 308 308 304 302 301 301 302 302 301 298 296 294 294 293 293 293 294 293 291 290 290 289 286 284 285 288
322 320 319 318 319 315 311 310 306 303 301 300 296 297 296 295 295 295 294 294 293 295 295 294 291 290 291 291 288 288 285 284
320 320 319 318 319 317 312 309 307 304 300 294 294 294 294 295 295 295 294 295 296 296 294 292 292 291 290 289 287 286 284 283
319 321 320 319 317 314 311 306 305 302 297 293 295 292 293 293 294 293 295 297 295 294 293 292 291 290 291 289 288 286 284 282
319 321 319 319 317 314 310 309 306 302 296 294 292 292 293 292 293 294 295 297 296 294 292 292 291 290 289 289 288 287 287 285
320 320 319 316 316 312 311 308 306 303 296 294 294 294 294 294 295 293 295 296 294 294 293 291 291 290 289 288 288 288 287 285

GFSFLT2_sfc_thetae_033.txt.gz
Theta_e
335 335 335 336 336 336 337 338 339 338 338 339 339 338 337 337 337 336 336 335 336 336 334 333 334 332 330 328 327 327 327 326
327 327 329 329 331 335 336 337 337 337 338 336 335 335 336 336 335 335 335 335 335 336 333 331 330 329 324 322 322 324 327 327
323 322 325 329 331 334 336 337 336 335 334 333 330 330 331 329 331 332 333 332 331 330 327 326 325 323 321 320 322 321 323 325
321 323 323 329 327 328 331 331 330 330 330 330 329 331 329 329 330 331 329 326 325 323 321 319 318 315 314 315 314 317 318 321
321 320 321 325 327 325 326 326 327 328 328 328 328 329 330 329 327 322 321 320 316 316 314 313 314 314 313 312 312 312 314 319
321 322 320 325 328 324 324 325 325 327 326 328 330 328 327 326 320 319 318 316 315 315 314 313 313 312 312 311 311 310 311 311
321 323 323 327 326 324 323 325 325 326 327 330 330 327 325 321 318 317 316 316 315 314 313 312 311 310 309 309 308 309 310 311
322 323 328 328 325 325 325 327 327 327 328 329 327 325 321 318 317 316 315 316 315 314 312 310 309 309 308 307 306 307 309 311
323 326 331 329 325 325 327 329 329 328 328 327 325 322 321 319 316 314 314 314 314 312 310 310 308 306 306 306 305 305 307 310
324 327 330 330 326 327 328 328 329 329 328 326 323 320 319 318 315 314 314 313 312 310 309 307 307 307 306 304 304 304 304 307
324 328 330 329 327 327 329 328 327 327 327 325 322 318 316 316 314 313 313 311 310 308 307 307 306 306 304 304 303 302 302 302
326 328 330 329 327 326 325 324 323 324 324 323 320 316 315 314 312 312 310 308 307 307 307 306 306 306 302 302 301 301 301 301
327 328 329 326 324 323 323 320 320 319 319 319 317 315 313 312 310 310 309 309 307 307 305 304 304 305 303 302 300 300 300 300
328 328 327 327 326 325 323 320 320 317 315 317 314 314 312 311 310 309 308 306 306 306 305 303 304 304 301 300 297 297 299 298
328 329 327 327 326 323 318 316 315 313 312 312 312 312 311 310 309 307 305 304 303 304 305 303 300 301 301 300 295 294 297 298
329 328 327 327 325 323 319 318 315 315 312 312 310 310 308 307 305 304 304 304 303 303 303 301 302 299 301 300 301 299 294 292
329 328 326 326 323 323 321 320 318 313 310 308 305 305 305 303 304 304 304 303 304 304 303 301 302 301 300 300 300 298 297 293
327 325 325 324 323 323 320 318 313 309 304 303 302 302 302 303 302 303 304 304 303 302 299 300 301 301 300 300 298 296 294 293
325 323 322 321 321 321 320 315 312 310 303 301 301 300 300 301 302 302 302 302 301 298 299 302 301 300 299 299 299 297 297 295
325 324 323 320 321 321 319 316 315 310 305 303 302 302 301 301 301 302 302 301 300 302 302 301 301 301 300 299 298 298 298 296

GFSFLT2_sfc_thetae_036.txt.gz
Theta_e
336 336 336 337 336 337 337 338 339 339 339 339 339 338 337 337 337 337 338 337 335 335 335 335 332 329 328 328 328 329 326 326
330 328 328 330 333 336 337 337 338 338 338 337 335 336 336 336 335 336 337 337 335 334 334 332 328 326 324 324 325 326 325 325
326 324 325 326 329 335 337 338 337 335 335 333 329 328 328 330 332 335 334 334 332 330 328 327 326 323 322 323 323 322 322 323
323 321 321 323 324 330 335 334 332 331 329 329 328 331 331 329 332 330 329 328 327 324 323 322 324 322 319 320 319 320 320 320
320 322 324 324 323 329 331 331 331 331 331 330 330 330 331 330 330 326 325 325 321 321 321 322 322 321 319 319 318 317 317 317
318 320 320 323 325 326 327 326 327 327 328 329 330 329 331 330 328 327 325 325 324 323 321 321 319 319 318 317 316 315 315 314
317 319 321 323 325 322 325 325 325 326 327 328 328 328 331 330 327 326 325 324 323 322 320 319 318 317 316 314 313 312 312 312
318 319 321 321 322 325 325 326 327 327 329 331 333 331 330 327 326 324 323 323 323 321 320 318 317 316 314 311 310 310 311 312
320 322 325 325 326 328 325 326 327 328 332 335 334 332 330 328 325 324 323 322 321 319 318 318 316 313 310 310 310 310 310 310
323 325 327 330 330 328 326 329 329 330 332 334 333 330 329 327 324 323 322 321 319 318 317 315 314 312 311 310 311 310 309 310
323 327 330 332 333 329 328 331 331 333 334 333 330 328 326 326 324 322 322 319 318 316 314 314 311 311 309 311 310 310 308 308
325 328 330 333 333 329 327 331 334 335 334 332 330 327 325 325 323 321 319 317 315 314 312 311 310 310 305 306 308 307 307 307
327 328 331 333 330 326 326 328 331 332 333 332 330 327 324 323 320 319 318 316 315 314 311 307 308 310 307 307 306 306 305 305
328 329 331 332 331 327 329 330 331 330 329 328 327 325 323 321 319 317 317 315 314 312 309 308 310 309 305 304 302 303 304 304
327 330 332 334 333 329 329 330 328 324 323 323 323 322 320 319 319 317 316 314 311 310 308 308 307 307 307 302 299 299 302 303
329 330 332 334 334 329 326 324 324 325 323 322 319 318 319 317 317 315 314 312 310 308 309 310 308 305 306 304 304 302 296 296
331 332 332 334 334 332 328 326 328 327 323 320 318 318 317 316 314 311 310 310 309 310 309 307 308 302 303 304 303 302 301 297
331 331 331 333 331 328 327 326 326 323 320 318 315 315 314 311 308 309 311 309 309 310 307 308 304 305 304 303 300 299 298 297
331 331 327 330 329 325 326 326 326 320 320 317 312 306 306 306 308 309 308 309 309 308 308 304 305 304 303 302 302 300 300 298
332 331 326 325 323 325 327 327 326 322 322 312 306 305 305 308 308 309 308 305 306 306 304 303 304 304 303 303 301 301 300 299

GFSFLT2_sfc_thetae_039.txt.gz
Theta_e
337 337 338 338 337 337 337 339 340 340 340 340 340 338 338 339 338 338 337 337 337 336 335 334 330 329 329 328 328 330 326 326
335 335 339 338 337 336 337 338 338 339 338 337 335 336 336 337 337 338 336 336 336 335 333 330 327 326 326 326 326 329 324 324
328 327 329 332 333 336 337 338 337 336 335 333 330 328 329 331 334 336 335 333 334 333 330 329 327 325 324 323 324 321 321 321
323 323 324 324 330 334 334 335 333 331 330 329 327 332 332 330 331 332 331 329 329 328 327 327 326 322 320 323 319 319 318 319
321 322 321 322 322 328 329 331 332 332 331 333 333 332 331 331 327 327 327 327 322 321 320 324 324 322 321 320 319 318 316 315
319 321 320 322 321 323 327 327 330 330 330 332 334 331 333 330 329 329 328 326 325 326 324 324 322 320 319 318 317 315 313 313
316 318 317 319 320 323 326 327 326 328 329 330 330 330 333 330 330 328 328 327 326 324 323 321 320 319 318 315 312 312 312 312
317 318 321 321 319 320 322 324 325 327 327 328 329 329 335 329 329 327 327 327 326 325 322 320 318 318 315 312 311 311 312 313
316 317 319 319 319 321 322 323 324 324 325 334 331 331 334 332 329 328 327 327 326 323 321 319 316 314 311 311 311 311 311 311
315 317 318 322 323 326 324 326 327 326 329 333 333 332 333 332 328 327 327 326 324 322 318 316 315 313 312 311 311 310 310 310
317 322 322 327 327 328 325 326 326 325 330 334 334 333 332 332 328 327 326 324 322 320 317 316 312 311 310 311 312 310 309 308
321 325 326 329 328 328 325 325 327 330 334 333 333 331 330 330 328 327 325 322 320 318 316 314 312 312 309 308 311 310 309 308
323 324 327 329 326 324 323 321 326 331 335 333 333 332 330 330 328 325 324 321 319 318 315 312 310 313 310 312 310 309 308 307
323 324 326 329 329 326 324 325 326 329 332 333 333 332 329 329 327 324 322 319 318 316 314 311 313 313 309 309 306 306 307 307
326 327 328 331 331 328 326 327 329 328 329 329 331 331 328 326 325 323 321 320 316 316 313 313 311 312 311 307 303 301 304 307
328 329 329 331 333 329 326 324 325 327 329 328 328 327 325 323 321 322 321 319 316 315 312 314 312 309 311 309 308 305 299 298
330 329 330 332 333 334 329 326 327 330 328 327 327 323 322 321 321 321 319 316 317 315 313 313 310 309 308 307 306 305 304 299
332 329 328 330 334 333 331 329 328 329 327 324 323 322 321 321 319 319 316 313 314 312 313 311 311 309 306 306 304 301 301 301
331 329 329 331 332 333 329 327 328 328 327 324 322 322 320 319 314 310 311 310 312 313 312 307 308 306 307 304 304 304 303 300
330 330 329 331 331 331 328 325 325 327 329 325 323 322 318 311 308 308 309 312 312 310 306 309 308 307 305 305 304 304 302 301